View from above orbital plane
|
View from above satellite
|
Ground track
|
The orbit data is extracted from the following two-line orbital elements,
1 00085U 61004C 21016.38522443 .00003200 00000-0 66968-3 0 9998
2 00085 38.7750 14.0789 0394342 119.7847 244.2719 14.21536031961399
Epoch (UTC): | 16 January 2021 09:14:43 |
Eccentricity: | 0.0394342 |
inclination: | 38.7750° |
perigee height: | 536 km |
apogee height: | 1104 km |
right ascension of ascending node: | 14.0789° |
argument of perigee: | 119.7847° |
revolutions per day: | 14.21536031 |
mean anomaly at epoch: | 244.2719° |
orbit number at epoch: | 96139 |
The dashed part of the orbit path shows where the satellite is in the earth's shadow,
|
|